Wetterdaten: Montag, 12.04.2010
Datum Zeit Temp. A. Feuchte A. Luftdruck Regen Wind Richtung Richtung Sonnenschein UV Solar Windben
12.04.2010 00:00 6,3 C 78 % 1024,1 hPa 0,0 mm 0,0 km/h (0 Bft) N-NO 22 0 min 0 UV-I 0 W/m 4,8 km/h (1 Bft)
12.04.2010 00:10 6,2 C 78 % 1023,9 hPa 0,0 mm 3,2 km/h (1 Bft) N 360 0 min 0 UV-I 0 W/m 8,0 km/h (2 Bft)
12.04.2010 00:20 6,3 C 78 % 1023,9 hPa 0,0 mm 1,6 km/h (1 Bft) N 360 0 min 0 UV-I 0 W/m 8,0 km/h (2 Bft)
12.04.2010 00:30 6,3 C 78 % 1023,8 hPa 0,0 mm 3,2 km/h (1 Bft) N 360 0 min 0 UV-I 0 W/m 11,3 km/h (2 Bft)
12.04.2010 00:40 6,4 C 78 % 1023,8 hPa 0,0 mm 4,8 km/h (1 Bft) N 360 0 min 0 UV-I 0 W/m 11,3 km/h (2 Bft)
12.04.2010 00:50 6,4 C 78 % 1023,7 hPa 0,0 mm 3,2 km/h (1 Bft) N 360 0 min 0 UV-I 0 W/m 6,4 km/h (2 Bft)
12.04.2010 01:00 6,4 C 78 % 1023,8 hPa 0,0 mm 3,2 km/h (1 Bft) N 360 0 min 0 UV-I 0 W/m 6,4 km/h (2 Bft)
12.04.2010 01:10 6,5 C 78 % 1023,7 hPa 0,0 mm 1,6 km/h (1 Bft) N-NO 22 0 min 0 UV-I 0 W/m 6,4 km/h (2 Bft)
12.04.2010 01:20 6,6 C 79 % 1023,5 hPa 0,0 mm 3,2 km/h (1 Bft) N-NO 22 0 min 0 UV-I 0 W/m 8,0 km/h (2 Bft)
12.04.2010 01:30 6,6 C 79 % 1023,4 hPa 0,0 mm 3,2 km/h (1 Bft) N 360 0 min 0 UV-I 0 W/m 8,0 km/h (2 Bft)
12.04.2010 01:40 6,6 C 80 % 1023,3 hPa 0,0 mm 3,2 km/h (1 Bft) N-NO 22 0 min 0 UV-I 0 W/m 8,0 km/h (2 Bft)
12.04.2010 01:50 6,6 C 80 % 1023,2 hPa 0,0 mm 1,6 km/h (1 Bft) N-NO 22 0 min 0 UV-I 0 W/m 6,4 km/h (2 Bft)
12.04.2010 02:00 6,6 C 80 % 1023,1 hPa 0,0 mm 1,6 km/h (1 Bft) N-NO 22 0 min 0 UV-I 0 W/m 4,8 km/h (1 Bft)
12.04.2010 02:10 6,6 C 81 % 1022,9 hPa 0,0 mm 1,6 km/h (1 Bft) N-NO 22 0 min 0 UV-I 0 W/m 8,0 km/h (2 Bft)
12.04.2010 02:20 6,6 C 82 % 1022,8 hPa 0,0 mm 3,2 km/h (1 Bft) N 360 0 min 0 UV-I 0 W/m 11,3 km/h (2 Bft)
12.04.2010 02:30 6,5 C 82 % 1022,7 hPa 0,0 mm 1,6 km/h (1 Bft) N-NO 22 0 min 0 UV-I 0 W/m 8,0 km/h (2 Bft)
12.04.2010 02:40 6,5 C 83 % 1022,6 hPa 0,0 mm 1,6 km/h (1 Bft) N-NO 22 0 min 0 UV-I 0 W/m 8,0 km/h (2 Bft)
12.04.2010 02:50 6,5 C 83 % 1022,4 hPa 0,0 mm 1,6 km/h (1 Bft) N-NO 22 0 min 0 UV-I 0 W/m 8,0 km/h (2 Bft)
12.04.2010 03:00 6,4 C 84 % 1022,3 hPa 0,0 mm 1,6 km/h (1 Bft) N-NO 22 0 min 0 UV-I 0 W/m 9,7 km/h (2 Bft)
12.04.2010 03:10 6,4 C 84 % 1022,1 hPa 0,0 mm 1,6 km/h (1 Bft) N-NO 22 0 min 0 UV-I 0 W/m 8,0 km/h (2 Bft)
12.04.2010 03:20 6,4 C 84 % 1022,1 hPa 0,0 mm 1,6 km/h (1 Bft) N 360 0 min 0 UV-I 0 W/m 8,0 km/h (2 Bft)
12.04.2010 03:30 6,4 C 84 % 1022,1 hPa 0,0 mm 1,6 km/h (1 Bft) N 360 0 min 0 UV-I 0 W/m 8,0 km/h (2 Bft)
12.04.2010 03:40 6,4 C 84 % 1022,0 hPa 0,0 mm 3,2 km/h (1 Bft) NO 45 0 min 0 UV-I 0 W/m 11,3 km/h (2 Bft)
12.04.2010 03:50 6,4 C 84 % 1021,9 hPa 0,0 mm 3,2 km/h (1 Bft) N 360 0 min 0 UV-I 0 W/m 8,0 km/h (2 Bft)
12.04.2010 04:00 6,4 C 84 % 1021,9 hPa 0,0 mm 1,6 km/h (1 Bft) N-NO 22 0 min 0 UV-I 0 W/m 9,7 km/h (2 Bft)
12.04.2010 04:10 6,4 C 84 % 1021,8 hPa 0,0 mm 1,6 km/h (1 Bft) N-NO 22 0 min 0 UV-I 0 W/m 4,8 km/h (1 Bft)
12.04.2010 04:20 6,4 C 84 % 1021,7 hPa 0,0 mm 1,6 km/h (1 Bft) N-NW 337 0 min 0 UV-I 0 W/m 11,3 km/h (2 Bft)
12.04.2010 04:30 6,3 C 84 % 1021,6 hPa 0,0 mm 1,6 km/h (1 Bft) N 360 0 min 0 UV-I 0 W/m 8,0 km/h (2 Bft)
12.04.2010 04:40 6,3 C 85 % 1021,6 hPa 0,0 mm 1,6 km/h (1 Bft) N-NO 22 0 min 0 UV-I 0 W/m 8,0 km/h (2 Bft)
12.04.2010 04:50 6,2 C 84 % 1021,6 hPa 0,0 mm 3,2 km/h (1 Bft) N-NO 22 0 min 0 UV-I 0 W/m 9,7 km/h (2 Bft)
12.04.2010 05:00 6,1 C 84 % 1021,5 hPa 0,0 mm 3,2 km/h (1 Bft) N-NO 22 0 min 0 UV-I 0 W/m 11,3 km/h (2 Bft)
12.04.2010 05:10 5,9 C 85 % 1021,5 hPa 0,0 mm 1,6 km/h (1 Bft) N-NO 22 0 min 0 UV-I 0 W/m 8,0 km/h (2 Bft)
12.04.2010 05:20 5,8 C 85 % 1021,4 hPa 0,0 mm 1,6 km/h (1 Bft) N-NO 22 0 min 0 UV-I 0 W/m 9,7 km/h (2 Bft)
12.04.2010 05:30 5,7 C 85 % 1021,3 hPa 0,0 mm 1,6 km/h (1 Bft) N-NO 22 0 min 0 UV-I 0 W/m 11,3 km/h (2 Bft)
12.04.2010 05:40 5,6 C 85 % 1021,3 hPa 0,0 mm 1,6 km/h (1 Bft) N 360 0 min 0 UV-I 0 W/m 6,4 km/h (2 Bft)
12.04.2010 05:50 5,4 C 85 % 1021,2 hPa 0,0 mm 1,6 km/h (1 Bft) N 360 0 min 0 UV-I 0 W/m 8,0 km/h (2 Bft)
12.04.2010 06:00 5,1 C 86 % 1021,2 hPa 0,0 mm 3,2 km/h (1 Bft) N-NO 22 0 min 0 UV-I 0 W/m 9,7 km/h (2 Bft)
12.04.2010 06:10 4,9 C 86 % 1021,2 hPa 0,0 mm 3,2 km/h (1 Bft) N-NO 22 0 min 0 UV-I 0 W/m 11,3 km/h (2 Bft)
12.04.2010 06:20 4,8 C 86 % 1021,3 hPa 0,0 mm 3,2 km/h (1 Bft) N 360 0 min 0 UV-I 0 W/m 11,3 km/h (2 Bft)
12.04.2010 06:30 4,6 C 87 % 1021,3 hPa 0,0 mm 3,2 km/h (1 Bft) NO 45 0 min 0 UV-I 0 W/m 14,5 km/h (3 Bft)
12.04.2010 06:40 4,4 C 87 % 1021,2 hPa 0,0 mm 3,2 km/h (1 Bft) N-NO 22 0 min 0 UV-I 0 W/m 16,1 km/h (3 Bft)
12.04.2010 06:50 4,3 C 87 % 1021,2 hPa 0,0 mm 4,8 km/h (1 Bft) N 360 0 min 0 UV-I 9 W/m 16,1 km/h (3 Bft)
12.04.2010 07:00 4,3 C 87 % 1021,2 hPa 0,0 mm 4,8 km/h (1 Bft) N 360 0 min 0 UV-I 12 W/m 16,1 km/h (3 Bft)
12.04.2010 07:10 4,3 C 87 % 1021,4 hPa 0,0 mm 4,8 km/h (1 Bft) N-NO 22 0 min 0 UV-I 14 W/m 14,5 km/h (3 Bft)
12.04.2010 07:20 4,5 C 87 % 1021,3 hPa 0,0 mm 4,8 km/h (1 Bft) N-NO 22 0 min 0 UV-I 18 W/m 11,3 km/h (2 Bft)
12.04.2010 07:30 4,7 C 86 % 1021,3 hPa 0,0 mm 4,8 km/h (1 Bft) N-NO 22 0 min 0 UV-I 21 W/m 9,7 km/h (2 Bft)
12.04.2010 07:40 4,7 C 86 % 1021,4 hPa 0,0 mm 3,2 km/h (1 Bft) N-NO 22 0 min 0 UV-I 25 W/m 17,7 km/h (3 Bft)
12.04.2010 07:50 4,8 C 85 % 1021,5 hPa 0,0 mm 1,6 km/h (1 Bft) O-NO 67 0 min 0 UV-I 25 W/m 6,4 km/h (2 Bft)
12.04.2010 08:00 5,0 C 84 % 1021,5 hPa 0,0 mm 2,9 km/h (1 Bft) NO 46 0 min 0 UV-I 33 W/m 8,0 km/h (2 Bft)
12.04.2010 08:10 5,0 C 88 % 1021,4 hPa 0,0 mm 4,8 km/h (1 Bft) N-NO 22 0 min 0 UV-I 60 W/m 16,1 km/h (3 Bft)
12.04.2010 08:20 5,1 C 83 % 1021,4 hPa 0,0 mm 3,2 km/h (1 Bft) O-NO 67 0 min 0 UV-I 77 W/m 12,9 km/h (3 Bft)
12.04.2010 08:30 5,1 C 82 % 1021,3 hPa 0,0 mm 4,8 km/h (1 Bft) NO 45 0 min 1 UV-I 105 W/m 11,3 km/h (2 Bft)
12.04.2010 08:40 5,2 C 82 % 1021,3 hPa 0,0 mm 3,2 km/h (1 Bft) N-NO 22 0 min 1 UV-I 120 W/m 9,7 km/h (2 Bft)
12.04.2010 08:50 5,2 C 82 % 1021,3 hPa 0,0 mm 3,2 km/h (1 Bft) O-NO 67 0 min 1 UV-I 165 W/m 14,5 km/h (3 Bft)
12.04.2010 09:00 5,5 C 81 % 1021,3 hPa 0,0 mm 3,2 km/h (1 Bft) O-NO 67 10 min 1 UV-I 255 W/m 11,3 km/h (2 Bft)
12.04.2010 09:10 5,8 C 80 % 1021,4 hPa 0,0 mm 3,2 km/h (1 Bft) O-NO 67 10 min 1 UV-I 316 W/m 9,7 km/h (2 Bft)
12.04.2010 09:20 6,4 C 79 % 1021,3 hPa 0,0 mm 4,8 km/h (1 Bft) O-NO 67 10 min 1 UV-I 332 W/m 9,7 km/h (2 Bft)
12.04.2010 09:30 6,6 C 78 % 1021,3 hPa 0,0 mm 1,6 km/h (1 Bft) O-NO 67 10 min 1 UV-I 345 W/m 9,7 km/h (2 Bft)
12.04.2010 09:40 6,8 C 77 % 1021,7 hPa 0,0 mm 3,2 km/h (1 Bft) O 90 10 min 1 UV-I 343 W/m 9,7 km/h (2 Bft)
12.04.2010 09:50 6,9 C 77 % 1021,5 hPa 0,0 mm 3,2 km/h (1 Bft) O-NO 67 10 min 1 UV-I 418 W/m 9,7 km/h (2 Bft)
12.04.2010 10:00 7,0 C 77 % 1021,5 hPa 0,0 mm 3,2 km/h (1 Bft) NO 45 10 min 2 UV-I 387 W/m 16,1 km/h (3 Bft)
12.04.2010 10:10 7,0 C 77 % 1021,4 hPa 0,0 mm 3,2 km/h (1 Bft) NO 45 10 min 2 UV-I 362 W/m 14,5 km/h (3 Bft)
12.04.2010 10:20 6,9 C 77 % 1021,4 hPa 0,0 mm 4,8 km/h (1 Bft) NO 45 0 min 1 UV-I 253 W/m 17,7 km/h (3 Bft)
12.04.2010 10:30 6,7 C 78 % 1021,5 hPa 0,0 mm 6,4 km/h (2 Bft) N-NO 22 10 min 2 UV-I 364 W/m 17,7 km/h (3 Bft)
12.04.2010 10:40 6,9 C 77 % 1021,4 hPa 0,0 mm 4,8 km/h (1 Bft) O-NO 67 10 min 2 UV-I 490 W/m 17,7 km/h (3 Bft)
12.04.2010 10:50 7,3 C 76 % 1021,4 hPa 0,0 mm 4,8 km/h (1 Bft) O 90 10 min 2 UV-I 561 W/m 11,3 km/h (2 Bft)
12.04.2010 11:00 7,8 C 74 % 1021,3 hPa 0,0 mm 6,4 km/h (2 Bft) O-NO 67 10 min 2 UV-I 624 W/m 17,7 km/h (3 Bft)
12.04.2010 11:10 7,9 C 75 % 1021,3 hPa 0,0 mm 4,8 km/h (1 Bft) NO 45 10 min 3 UV-I 592 W/m 17,7 km/h (3 Bft)
12.04.2010 11:20 8,4 C 74 % 1021,3 hPa 0,0 mm 4,8 km/h (1 Bft) N-NO 22 10 min 3 UV-I 606 W/m 14,5 km/h (3 Bft)
12.04.2010 11:30 8,3 C 73 % 1021,3 hPa 0,0 mm 3,2 km/h (1 Bft) N-NO 22 10 min 3 UV-I 721 W/m 9,7 km/h (2 Bft)
12.04.2010 11:40 8,8 C 71 % 1021,2 hPa 0,0 mm 3,2 km/h (1 Bft) N-NO 22 10 min 3 UV-I 464 W/m 11,3 km/h (2 Bft)
12.04.2010 11:50 8,9 C 72 % 1021,2 hPa 0,0 mm 3,2 km/h (1 Bft) O-NO 67 0 min 1 UV-I 202 W/m 11,3 km/h (2 Bft)
12.04.2010 12:00 8,6 C 74 % 1021,1 hPa 0,0 mm 3,2 km/h (1 Bft) O-NO 67 0 min 2 UV-I 334 W/m 9,7 km/h (2 Bft)
12.04.2010 12:10 8,6 C 72 % 1021,2 hPa 0,0 mm 6,4 km/h (2 Bft) N-NO 22 10 min 3 UV-I 503 W/m 16,1 km/h (3 Bft)
12.04.2010 12:20 8,7 C 73 % 1021,2 hPa 0,0 mm 4,8 km/h (1 Bft) NO 45 10 min 3 UV-I 469 W/m 16,1 km/h (3 Bft)
12.04.2010 12:30 8,8 C 72 % 1021,1 hPa 0,0 mm 4,8 km/h (1 Bft) O 90 10 min 3 UV-I 468 W/m 14,5 km/h (3 Bft)
12.04.2010 12:40 9,3 C 72 % 1021,1 hPa 0,0 mm 3,2 km/h (1 Bft) O 90 10 min 3 UV-I 605 W/m 9,7 km/h (2 Bft)
12.04.2010 12:50 9,5 C 70 % 1020,9 hPa 0,0 mm 4,8 km/h (1 Bft) O 90 10 min 3 UV-I 503 W/m 9,7 km/h (2 Bft)
12.04.2010 13:00 10,1 C 70 % 1020,9 hPa 0,0 mm 4,8 km/h (1 Bft) O 90 10 min 4 UV-I 719 W/m 11,3 km/h (2 Bft)
12.04.2010 13:10 9,4 C 71 % 1020,9 hPa 0,0 mm 4,8 km/h (1 Bft) O-NO 67 0 min 2 UV-I 251 W/m 14,5 km/h (3 Bft)
12.04.2010 13:20 9,3 C 71 % 1020,8 hPa 0,0 mm 8,0 km/h (2 Bft) O 90 10 min 3 UV-I 594 W/m 19,3 km/h (3 Bft)
12.04.2010 13:30 9,8 C 69 % 1020,9 hPa 0,0 mm 8,0 km/h (2 Bft) O 90 10 min 3 UV-I 622 W/m 24,1 km/h (4 Bft)
12.04.2010 13:40 9,7 C 69 % 1020,9 hPa 0,0 mm 8,0 km/h (2 Bft) O 90 0 min 2 UV-I 278 W/m 17,7 km/h (3 Bft)
12.04.2010 13:50 9,4 C 70 % 1020,8 hPa 0,0 mm 6,4 km/h (2 Bft) O-NO 67 0 min 2 UV-I 283 W/m 24,1 km/h (4 Bft)
12.04.2010 14:00 9,1 C 74 % 1020,8 hPa 0,0 mm 6,4 km/h (2 Bft) O 90 0 min 1 UV-I 192 W/m 14,5 km/h (3 Bft)
12.04.2010 14:10 9,0 C 71 % 1020,7 hPa 0,0 mm 6,4 km/h (2 Bft) O 90 0 min 2 UV-I 225 W/m 17,7 km/h (3 Bft)
12.04.2010 14:20 9,2 C 71 % 1020,7 hPa 0,0 mm 8,0 km/h (2 Bft) O 90 0 min 2 UV-I 306 W/m 17,7 km/h (3 Bft)
12.04.2010 14:30 9,4 C 70 % 1020,6 hPa 0,0 mm 4,8 km/h (1 Bft) O-NO 67 0 min 2 UV-I 227 W/m 17,7 km/h (3 Bft)
12.04.2010 14:40 9,3 C 71 % 1020,5 hPa 0,0 mm 4,8 km/h (1 Bft) O 90 0 min 1 UV-I 160 W/m 14,5 km/h (3 Bft)
12.04.2010 14:50 9,2 C 72 % 1020,5 hPa 0,0 mm 4,8 km/h (1 Bft) O-NO 67 0 min 1 UV-I 195 W/m 9,7 km/h (2 Bft)
12.04.2010 15:00 9,2 C 71 % 1020,5 hPa 0,0 mm 6,4 km/h (2 Bft) O 90 0 min 1 UV-I 165 W/m 19,3 km/h (3 Bft)
12.04.2010 15:10 9,2 C 71 % 1020,3 hPa 0,0 mm 4,8 km/h (1 Bft) O 90 0 min 1 UV-I 199 W/m 17,7 km/h (3 Bft)
12.04.2010 15:20 9,3 C 71 % 1020,3 hPa 0,0 mm 4,8 km/h (1 Bft) NO 45 0 min 1 UV-I 178 W/m 19,3 km/h (3 Bft)
12.04.2010 15:30 9,6 C 70 % 1020,1 hPa 0,0 mm 1,6 km/h (1 Bft) O 90 0 min 1 UV-I 181 W/m 8,0 km/h (2 Bft)
12.04.2010 15:40 9,8 C 71 % 1020,0 hPa 0,0 mm 4,8 km/h (1 Bft) O-SO 112 0 min 1 UV-I 248 W/m 11,3 km/h (2 Bft)
12.04.2010 15:50 10,2 C 69 % 1019,7 hPa 0,0 mm 4,8 km/h (1 Bft) O 90 0 min 1 UV-I 236 W/m 14,5 km/h (3 Bft)
12.04.2010 16:00 10,4 C 69 % 1019,7 hPa 0,0 mm 4,3 km/h (1 Bft) O-NO 65 0 min 1 UV-I 134 W/m 6,4 km/h (2 Bft)
12.04.2010 16:10 10,6 C 69 % 1019,6 hPa 0,0 mm 3,2 km/h (1 Bft) O-NO 67 0 min 1 UV-I 232 W/m 11,3 km/h (2 Bft)
12.04.2010 16:20 10,7 C 68 % 1019,5 hPa 0,0 mm 3,2 km/h (1 Bft) O 90 0 min 1 UV-I 236 W/m 11,3 km/h (2 Bft)
12.04.2010 16:30 11,1 C 68 % 1019,5 hPa 0,0 mm 3,2 km/h (1 Bft) O-NO 67 0 min 1 UV-I 250 W/m 11,3 km/h (2 Bft)
12.04.2010 16:40 11,5 C 67 % 1019,3 hPa 0,0 mm 3,2 km/h (1 Bft) O-NO 67 10 min 1 UV-I 387 W/m 9,7 km/h (2 Bft)
12.04.2010 16:50 12,1 C 64 % 1019,1 hPa 0,0 mm 4,8 km/h (1 Bft) NO 45 10 min 2 UV-I 531 W/m 20,9 km/h (4 Bft)
12.04.2010 17:00 12,4 C 63 % 1019,1 hPa 0,0 mm 4,8 km/h (1 Bft) O-NO 67 10 min 2 UV-I 517 W/m 16,1 km/h (3 Bft)
12.04.2010 17:10 12,9 C 61 % 1019,0 hPa 0,0 mm 6,4 km/h (2 Bft) O-NO 67 10 min 2 UV-I 538 W/m 20,9 km/h (4 Bft)
12.04.2010 17:20 13,3 C 61 % 1018,9 hPa 0,0 mm 4,8 km/h (1 Bft) O-NO 67 10 min 1 UV-I 492 W/m 14,5 km/h (3 Bft)
12.04.2010 17:30 13,2 C 61 % 1018,9 hPa 0,0 mm 4,8 km/h (1 Bft) O-NO 67 10 min 1 UV-I 373 W/m 16,1 km/h (3 Bft)
12.04.2010 17:40 12,8 C 62 % 1018,8 hPa 0,0 mm 6,4 km/h (2 Bft) O-NO 67 10 min 1 UV-I 403 W/m 16,1 km/h (3 Bft)
12.04.2010 17:50 12,9 C 62 % 1018,8 hPa 0,0 mm 6,4 km/h (2 Bft) O 90 10 min 1 UV-I 295 W/m 22,5 km/h (4 Bft)
12.04.2010 18:00 12,8 C 61 % 1018,7 hPa 0,0 mm 6,4 km/h (2 Bft) O 90 10 min 1 UV-I 199 W/m 20,9 km/h (4 Bft)
12.04.2010 18:10 12,5 C 62 % 1018,7 hPa 0,0 mm 6,4 km/h (2 Bft) O 90 10 min 1 UV-I 211 W/m 14,5 km/h (3 Bft)
12.04.2010 18:20 12,3 C 62 % 1018,7 hPa 0,0 mm 6,4 km/h (2 Bft) O-NO 67 10 min 1 UV-I 193 W/m 11,3 km/h (2 Bft)
12.04.2010 18:30 12,2 C 62 % 1018,7 hPa 0,0 mm 4,8 km/h (1 Bft) O-NO 67 10 min 1 UV-I 206 W/m 16,1 km/h (3 Bft)
12.04.2010 18:40 12,4 C 62 % 1018,6 hPa 0,0 mm 1,6 km/h (1 Bft) O-NO 67 10 min 1 UV-I 186 W/m 8,0 km/h (2 Bft)
12.04.2010 18:50 12,6 C 64 % 1018,6 hPa 0,0 mm 1,6 km/h (1 Bft) O 90 10 min 0 UV-I 178 W/m 6,4 km/h (2 Bft)
12.04.2010 19:00 12,5 C 62 % 1018,6 hPa 0,0 mm 1,6 km/h (1 Bft) NO 45 10 min 0 UV-I 130 W/m 6,4 km/h (2 Bft)
12.04.2010 19:10 12,4 C 62 % 1018,5 hPa 0,0 mm 3,2 km/h (1 Bft) NO 45 10 min 0 UV-I 128 W/m 11,3 km/h (2 Bft)
12.04.2010 19:20 12,2 C 64 % 1018,5 hPa 0,0 mm 1,6 km/h (1 Bft) O 90 0 min 0 UV-I 72 W/m 9,7 km/h (2 Bft)
12.04.2010 19:30 11,9 C 63 % 1018,6 hPa 0,0 mm 3,2 km/h (1 Bft) NO 45 10 min 0 UV-I 72 W/m 19,3 km/h (3 Bft)
12.04.2010 19:40 11,8 C 63 % 1018,5 hPa 0,0 mm 4,8 km/h (1 Bft) N 360 10 min 0 UV-I 56 W/m 11,3 km/h (2 Bft)
12.04.2010 19:50 11,7 C 64 % 1018,6 hPa 0,0 mm 3,2 km/h (1 Bft) O-NO 67 10 min 0 UV-I 49 W/m 14,5 km/h (3 Bft)
12.04.2010 20:00 11,6 C 64 % 1018,6 hPa 0,0 mm 1,6 km/h (1 Bft) N-NO 22 10 min 0 UV-I 32 W/m 4,8 km/h (1 Bft)
12.04.2010 20:10 11,4 C 65 % 1018,7 hPa 0,0 mm 1,6 km/h (1 Bft) NO 45 0 min 0 UV-I 19 W/m 4,8 km/h (1 Bft)
12.04.2010 20:20 11,3 C 65 % 1018,8 hPa 0,0 mm 1,6 km/h (1 Bft) NO 45 0 min 0 UV-I 0 W/m 8,0 km/h (2 Bft)
12.04.2010 20:30 11,2 C 65 % 1018,9 hPa 0,0 mm 3,2 km/h (1 Bft) O-NO 67 0 min 0 UV-I 0 W/m 8,0 km/h (2 Bft)
12.04.2010 20:40 11,2 C 65 % 1019,1 hPa 0,0 mm 3,2 km/h (1 Bft) O-NO 67 0 min 0 UV-I 0 W/m 9,7 km/h (2 Bft)
12.04.2010 20:50 11,1 C 67 % 1019,1 hPa 0,0 mm 1,6 km/h (1 Bft) O-NO 67 0 min 0 UV-I 0 W/m 8,0 km/h (2 Bft)
12.04.2010 21:00 10,9 C 69 % 1019,2 hPa 0,0 mm 1,6 km/h (1 Bft) O-NO 67 0 min 0 UV-I 0 W/m 6,4 km/h (2 Bft)
12.04.2010 21:10 10,8 C 70 % 1019,3 hPa 0,0 mm 1,6 km/h (1 Bft) O-NO 67 0 min 0 UV-I 0 W/m 8,0 km/h (2 Bft)
12.04.2010 21:20 10,6 C 74 % 1019,5 hPa 0,0 mm 1,6 km/h (1 Bft) O 90 0 min 0 UV-I 0 W/m 8,0 km/h (2 Bft)
12.04.2010 21:30 10,2 C 78 % 1019,4 hPa 0,0 mm 3,2 km/h (1 Bft) O-SO 112 0 min 0 UV-I 0 W/m 9,7 km/h (2 Bft)
12.04.2010 21:40 9,9 C 79 % 1019,3 hPa 0,0 mm 3,2 km/h (1 Bft) O 90 0 min 0 UV-I 0 W/m 6,4 km/h (2 Bft)
12.04.2010 21:50 9,7 C 80 % 1019,3 hPa 0,0 mm 0,0 km/h (0 Bft) O-NO 67 0 min 0 UV-I 0 W/m 3,2 km/h (1 Bft)
12.04.2010 22:00 9,6 C 80 % 1019,3 hPa 0,0 mm 0,0 km/h (0 Bft) NO 45 0 min 0 UV-I 0 W/m 4,8 km/h (1 Bft)
12.04.2010 22:10 9,5 C 80 % 1019,3 hPa 0,0 mm 0,0 km/h (0 Bft) NO 45 0 min 0 UV-I 0 W/m 4,8 km/h (1 Bft)
12.04.2010 22:20 9,4 C 79 % 1019,2 hPa 0,0 mm 1,6 km/h (1 Bft) N-NO 22 0 min 0 UV-I 0 W/m 4,8 km/h (1 Bft)
12.04.2010 22:30 9,3 C 79 % 1019,1 hPa 0,0 mm 0,0 km/h (0 Bft) N-NO 22 0 min 0 UV-I 0 W/m 4,8 km/h (1 Bft)
12.04.2010 22:40 9,1 C 80 % 1019,2 hPa 0,0 mm 0,0 km/h (0 Bft) O-NO 67 0 min 0 UV-I 0 W/m 4,8 km/h (1 Bft)
12.04.2010 22:50 9,1 C 78 % 1019,0 hPa 0,0 mm 1,6 km/h (1 Bft) N-NO 22 0 min 0 UV-I 0 W/m 11,3 km/h (2 Bft)
12.04.2010 23:00 9,6 C 75 % 1018,9 hPa 0,0 mm 0,9 km/h (0 Bft) N-NO 12 0 min 0 UV-I 0 W/m 4,8 km/h (1 Bft)
12.04.2010 23:10 9,5 C 75 % 1018,9 hPa 0,0 mm 1,6 km/h (1 Bft) N-NO 22 0 min 0 UV-I 0 W/m 8,0 km/h (2 Bft)
12.04.2010 23:20 9,3 C 75 % 1019,0 hPa 0,0 mm 3,2 km/h (1 Bft) N-NO 22 0 min 0 UV-I 0 W/m 8,0 km/h (2 Bft)
12.04.2010 23:30 9,0 C 76 % 1019,0 hPa 0,0 mm 1,6 km/h (1 Bft) N 360 0 min 0 UV-I 0 W/m 6,4 km/h (2 Bft)
12.04.2010 23:40 8,7 C 77 % 1019,0 hPa 0,0 mm 1,6 km/h (1 Bft) NO 45 0 min 0 UV-I 0 W/m 9,7 km/h (2 Bft)
12.04.2010 23:50 8,6 C 78 % 1019,0 hPa 0,0 mm 1,6 km/h (1 Bft) N-NO 22 0 min 0 UV-I 0 W/m 6,4 km/h (2 Bft)
_ Min-Zeit 06:40 17:10 19:10 - 00:00 - - - - - 21:50
Minimum _ 4,3 C 61 % 1018,5 hPa - 0,0 km/h (0 Bft) - - - - - 3,2 km/h (1 Bft)
_ Max-Zeit 17:20 08:10 00:00 00:00 13:20 - - 09:00 13:00 11:30 13:30
Maximum _ 13,4 C 88 % 1024,1 hPa 0,0 mm 8,0 km/h
O (2 Bft)
- - 10 min 4 UV-I 721 W/m 24,1 km/h
O-SO (4 Bft)
Durchschnitt _ 8,3 C 75 % 1020,8 hPa #0,0 mm 3,4 km/h (1 Bft) N-NO - #7:20 h 2 UV-I 279 W/m 11,3 km/h (2 Bft)